Calvi, France

12:31 AM CET on January 20, 2018 (GMT +0100)
Saint Catherine

Weather History for LFKC - December, 2012

Change the Weather History Date:

Sunday, December 9, 2012

  Actual Average Record
Temperature  
Mean Temperature 43 °F -  
Max Temperature 53 °F 55 °F 68 °F (2000)
Min Temperature 33 °F 43 °F 33 °F (2012)
Degree Days  
Heating Degree Days 22    
Moisture  
Dew Point 25 °F    
Average Humidity 48    
Maximum Humidity 81    
Minimum Humidity 24    
Precipitation  
Precipitation 0.00 in - - ()
Sea Level Pressure  
Sea Level Pressure 30.10 in    
Wind  
Wind Speed 4 mph ()    
Max Wind Speed 7 mph    
Max Gust Speed -    
Averages and records for this station are not official NWS values.
T = Trace of Precipitation, MM = Missing Value Source: Averaged Metar Reports

Daily Weather History Graph

Daily Weather History Graph

Search for Another Location

Airport or City:

Trip Planner

Search our weather history database for the weather conditions in past years. The results will help you decide how hot, cold, wet, or windy it might be!

Date:

Astronomy

Dec. 09, 2012 Rise Set
Actual Time 7:42 AM CET 4:51 PM CET
Civil Twilight 7:11 AM CET 5:23 PM CET
Nautical Twilight 6:35 AM CET 5:58 PM CET
Astronomical Twilight 6:01 AM CET 6:32 PM CET
Moon 2:52 AM CET (12/9) 1:51 PM CET (12/9)
Length of Visible Light 10h 12m
Length of Day
9h 08m
Waning Crescent, 21% of the Moon is Illuminated
Dec 9
Waning Crescent
Dec 13
New
Dec 20
First Quarter
Dec 28
Full
Jan 5
Last Quarter

Hourly Weather History & Observations

Time (CET) Temp. Windchill Dew Point Humidity Pressure Visibility Wind Dir Wind Speed Gust Speed Precip Events Conditions
7:00 AM 35.6 °F 29.9 °F 26.6 °F 70% 30.09 in - South 6.9 mph - N/A   Clear
7:30 AM 33.8 °F 27.7 °F 28.4 °F 81% 30.09 in - South 6.9 mph - N/A   Clear
8:00 AM 33.8 °F 28.6 °F 26.6 °F 75% 30.09 in - South 5.8 mph - N/A   Clear
8:30 AM 33.8 °F 27.7 °F 26.6 °F 75% 30.09 in - SSW 6.9 mph - N/A   Clear
9:00 AM 37.4 °F 33.8 °F 28.4 °F 70% 30.12 in - South 4.6 mph - N/A   Clear
9:30 AM 41.0 °F 38.0 °F 30.2 °F 65% 30.12 in - SSW 4.6 mph - N/A   Clear
10:00 AM 46.4 °F - 32.0 °F 57% 30.12 in - Variable 2.3 mph - N/A   Clear
10:30 AM 50.0 °F - 26.6 °F 40% 30.12 in - South 3.5 mph - N/A   Clear
11:00 AM 51.8 °F - 24.8 °F 35% 30.12 in - Variable 2.3 mph - N/A   Clear
11:30 AM 51.8 °F - 21.2 °F 30% 30.12 in - Variable 1.2 mph - N/A   Clear
12:00 PM 53.6 °F - 17.6 °F 24% 30.12 in - North 5.8 mph - N/A   Clear
12:30 PM 53.6 °F - 19.4 °F 26% 30.12 in - North 5.8 mph - N/A   Clear
1:00 PM 53.6 °F - 19.4 °F 26% 30.09 in - Variable 3.5 mph - N/A   Clear
1:30 PM 53.6 °F - 19.4 °F 26% 30.09 in - Variable 3.5 mph - N/A   Clear
2:00 PM 53.6 °F - 21.2 °F 28% 30.09 in - North 4.6 mph - N/A   Clear
2:30 PM 53.6 °F - 21.2 °F 28% 30.09 in - Variable 3.5 mph - N/A   Clear
3:00 PM 53.6 °F - 21.2 °F 28% 30.09 in - Variable 2.3 mph - N/A   Clear
3:30 PM 53.6 °F - 26.6 °F 35% 30.09 in - Variable 2.3 mph - N/A   Clear
4:00 PM 51.8 °F - 30.2 °F 44% 30.09 in - Calm Calm - N/A   Clear
4:30 PM 44.6 °F 43.1 °F 30.2 °F 57% 30.09 in - Variable 3.5 mph - N/A   Clear
5:00 PM 42.8 °F - 30.2 °F 61% 30.09 in - Variable 2.3 mph - N/A   Clear
5:30 PM 39.2 °F - 28.4 °F 65% 30.06 in - Calm Calm - N/A   Clear